Terminal Aerodrome Forecast
Issued by NWS Medford, OR

Home | Current Version | Previous Version | Text Only | Print | Product List | Glossary On
Versions: 1 2 3 4 5 6 7 8 9 10 11 12 13 14
000
FTUS46 KMFR 300045 AAB
TAFMFR
TAF AMD
KMFR 300045Z 3001/3024 30010KT 3SM HZ FEW080 SCT120 BKN250
     FM300500 VRB03KT P6SM SCT050 SCT100 BKN250=

USA.gov is the U.S. government's official web portal to all federal, state and local government web resources and services.